| time (UTC) | temp F | wind direction | speed MPH | gust MPH | rain 1hr in | rain 24hr in | rain mn in | humidity % | barometer mb |
| 20260509044006 | 71 | 22 | 5.0 | 10.0 | 0.00 | 0.02 | 0.02 | 58 | 991.1 |
| 20260509043006 | 71 | 22 | 5.0 | 10.0 | 0.00 | 0.02 | 0.02 | 58 | 991.1 |
| 20260509041007 | 71 | 22 | 5.0 | 10.0 | 0.00 | 0.02 | 0.02 | 58 | 991.1 |
| 20260509040006 | 71 | 22 | 5.0 | 10.0 | 0.00 | 0.02 | 0.02 | 58 | 991.1 |
| 20260509035006 | 71 | 22 | 5.0 | 10.0 | 0.00 | 0.02 | 0.02 | 58 | 991.1 |
| 20260509033007 | 71 | 22 | 5.0 | 10.0 | 0.00 | 0.02 | 0.02 | 58 | 991.1 |
| 20260509031006 | 71 | 22 | 5.0 | 10.0 | 0.00 | 0.02 | 0.02 | 58 | 991.1 |
| 20260509030006 | 71 | 22 | 5.0 | 10.0 | 0.00 | 0.02 | 0.02 | 58 | 991.1 |
| 20260509025006 | 71 | 22 | 5.0 | 10.0 | 0.00 | 0.02 | 0.02 | 58 | 991.1 |
| 20260509023008 | 71 | 22 | 5.0 | 10.0 | 0.00 | 0.02 | 0.02 | 58 | 991.1 |
| 20260509022006 | 72 | 25 | 2.0 | 12.0 | 0.00 | 0.02 | 0.02 | 55 | 990.9 |
| 20260509021006 | 72 | 41 | 3.0 | 14.0 | 0.00 | 0.02 | 0.02 | 55 | 991.0 |
| 20260509020007 | 72 | 331 | 4.0 | 17.0 | 0.00 | 0.02 | 0.02 | 54 | 991.1 |
| 20260509014006 | 72 | 29 | 10.0 | 16.0 | 0.00 | 0.02 | 0.02 | 54 | 991.3 |
| 20260509013007 | 72 | 15 | 4.0 | 10.0 | 0.00 | 0.02 | 0.02 | 55 | 991.3 |
| 20260509012006 | 72 | 27 | 4.0 | 14.0 | 0.00 | 0.02 | 0.02 | 54 | 991.1 |
| 20260509011006 | 72 | 32 | 4.0 | 12.0 | 0.00 | 0.02 | 0.02 | 55 | 991.5 |
| 20260509010009 | 72 | 30 | 6.0 | 17.0 | 0.00 | 0.02 | 0.02 | 55 | 991.5 |
| 20260509005008 | 72 | 34 | 6.0 | 17.0 | 0.00 | 0.02 | 0.02 | 57 | 991.2 |
| 20260509003007 | 72 | 33 | 5.0 | 10.0 | 0.00 | 0.02 | 0.02 | 56 | 992.0 |
| 20260509002005 | 72 | 33 | 6.0 | 17.0 | 0.00 | 0.02 | 0.02 | 56 | 992.8 |
| 20260509001006 | 72 | 40 | 4.0 | 17.0 | 0.00 | 0.02 | 0.02 | 58 | 993.0 |
| 20260509000006 | 71 | 32 | 4.0 | 14.0 | 0.00 | 0.02 | 0.02 | 57 | 993.3 |
| 20260508234006 | 71 | 27 | 4.0 | 14.0 | 0.00 | 0.02 | 0.02 | 59 | 993.8 |
| 20260508233007 | 71 | 33 | 5.0 | 16.0 | 0.00 | 0.02 | 0.02 | 59 | 994.0 |
| 20260508231006 | 71 | 20 | 6.0 | 14.0 | 0.00 | 0.02 | 0.02 | 60 | 994.1 |
| 20260508230006 | 70 | 35 | 6.0 | 16.0 | 0.00 | 0.02 | 0.02 | 60 | 994.1 |
| 20260508224006 | 69 | 27 | 6.0 | 14.0 | 0.00 | 0.02 | 0.02 | 62 | 994.5 |
| 20260508223006 | 70 | 30 | 4.0 | 14.0 | 0.00 | 0.02 | 0.02 | 61 | 995.0 |
| 20260508222005 | 70 | 29 | 5.0 | 17.0 | 0.00 | 0.02 | 0.02 | 61 | 995.0 |
| 20260508221006 | 69 | 37 | 4.0 | 16.0 | 0.00 | 0.02 | 0.02 | 63 | 994.8 |
| 20260508220006 | 69 | 40 | 5.0 | 16.0 | 0.00 | 0.02 | 0.02 | 62 | 995.1 |
| 20260508214006 | 69 | 27 | 2.0 | 9.0 | 0.00 | 0.02 | 0.02 | 66 | 995.4 |
| 20260508213007 | 68 | 32 | 4.0 | 9.0 | 0.00 | 0.02 | 0.02 | 67 | 995.7 |
| 20260508212005 | 67 | 34 | 4.0 | 7.0 | 0.00 | 0.02 | 0.02 | 69 | 995.7 |
| 20260508211005 | 67 | 21 | 5.0 | 12.0 | 0.00 | 0.02 | 0.02 | 69 | 995.7 |
| 20260508210006 | 66 | 25 | 3.0 | 7.0 | 0.00 | 0.02 | 0.02 | 72 | 996.1 |
| 20260508205005 | 65 | 37 | 2.0 | 9.0 | 0.00 | 0.02 | 0.02 | 73 | 996.4 |
| 20260508202006 | 62 | 0 | 0.0 | 3.0 | 0.00 | 0.02 | 0.02 | 79 | 997.2 |
| 20260508201006 | 60 | 323 | 1.0 | 3.0 | 0.00 | 0.02 | 0.02 | 83 | 997.5 |
| 20260508200006 | 59 | 0 | 0.0 | 0.0 | 0.00 | 0.02 | 0.02 | 85 | 998.0 |
| 20260508195005 | 56 | 0 | 0.0 | 0.0 | 0.00 | 0.02 | 0.02 | 90 | 998.1 |
| 20260508193006 | 56 | 0 | 0.0 | 0.0 | 0.00 | 0.02 | 0.02 | 91 | 998.1 |
| 20260508191006 | 57 | 0 | 0.0 | 0.0 | 0.00 | 0.02 | 0.02 | 89 | 998.2 |
| 20260508185005 | 58 | 0 | 0.0 | 2.0 | 0.00 | 0.02 | 0.02 | 86 | 997.9 |
| 20260508184006 | 60 | 0 | 0.0 | 2.0 | 0.00 | 0.02 | 0.02 | 82 | 997.9 |
| 20260508183007 | 63 | 34 | 1.0 | 10.0 | 0.00 | 0.02 | 0.02 | 76 | 997.5 |
| 20260508182006 | 62 | 42 | 3.0 | 7.0 | 0.00 | 0.02 | 0.02 | 76 | 997.6 |
| 20260508181006 | 62 | 24 | 1.0 | 12.0 | 0.00 | 0.02 | 0.02 | 77 | 997.3 |
| 20260508180007 | 62 | 30 | 5.0 | 19.0 | 0.00 | 0.02 | 0.02 | 76 | 996.9 |
| 20260508173006 | 62 | 0 | 0.0 | 3.0 | 0.01 | 0.02 | 0.02 | 94 | 996.5 |
| 20260508172008 | 62 | 45 | 1.0 | 3.0 | 0.02 | 0.02 | 0.02 | 94 | 996.3 |
| 20260508171007 | 62 | 0 | 0.0 | 3.0 | 0.02 | 0.02 | 0.02 | 94 | 996.3 |
| 20260508170006 | 62 | 0 | 0.0 | 3.0 | 0.02 | 0.02 | 0.02 | 94 | 996.3 |
| 20260508165007 | 63 | 1 | 1.0 | 3.0 | 0.01 | 0.01 | 0.01 | 92 | 995.9 |
| 20260508164006 | 64 | 0 | 0.0 | 2.0 | 0.01 | 0.01 | 0.01 | 90 | 996.3 |
| 20260508163007 | 65 | 31 | 1.0 | 7.0 | 0.01 | 0.01 | 0.01 | 87 | 996.1 |
| 20260508161006 | 67 | 28 | 5.0 | 19.0 | 0.00 | 0.00 | 0.00 | 78 | 995.6 |
| 20260508160006 | 67 | 30 | 4.0 | 14.0 | 0.00 | 0.00 | 0.00 | 77 | 995.5 |
| 20260508154007 | 66 | 31 | 3.0 | 14.0 | 0.00 | 0.00 | 0.00 | 77 | 995.1 |
| 20260508153007 | 66 | 36 | 2.0 | 7.0 | 0.00 | 0.00 | 0.00 | 77 | 995.4 |
| 20260508151007 | 66 | 36 | 4.0 | 14.0 | 0.00 | 0.00 | 0.00 | 75 | 995.7 |
| 20260508144005 | 67 | 28 | 4.0 | 19.0 | 0.00 | 0.00 | 0.00 | 73 | 996.3 |
| 20260508143006 | 66 | 30 | 8.0 | 14.0 | 0.00 | 0.00 | 0.00 | 74 | 996.9 |
| 20260508142005 | 66 | 29 | 3.0 | 12.0 | 0.00 | 0.00 | 0.00 | 74 | 997.0 |
| 20260508141006 | 66 | 39 | 5.0 | 20.0 | 0.00 | 0.00 | 0.00 | 74 | 997.1 |
| 20260508140006 | 66 | 40 | 5.0 | 16.0 | 0.00 | 0.00 | 0.00 | 75 | 996.9 |
| 20260508135005 | 67 | 37 | 5.0 | 17.0 | 0.00 | 0.00 | 0.00 | 75 | 997.2 |
| 20260508134006 | 66 | 24 | 8.0 | 12.0 | 0.00 | 0.00 | 0.00 | 75 | 997.2 |
| 20260508133006 | 66 | 36 | 5.0 | 10.0 | 0.00 | 0.00 | 0.00 | 76 | 997.7 |
| 20260508132005 | 66 | 30 | 3.0 | 12.0 | 0.00 | 0.00 | 0.00 | 76 | 997.4 |
| 20260508131007 | 66 | 31 | 3.0 | 12.0 | 0.00 | 0.00 | 0.00 | 76 | 998.1 |
| 20260508130006 | 66 | 15 | 5.0 | 19.0 | 0.00 | 0.00 | 0.00 | 77 | 998.0 |
| 20260508125006 | 66 | 38 | 10.0 | 20.0 | 0.00 | 0.00 | 0.00 | 77 | 997.4 |
| 20260508121006 | 66 | 27 | 11.0 | 24.0 | 0.00 | 0.00 | 0.00 | 76 | 997.9 |
| 20260508115006 | 65 | 41 | 8.0 | 20.0 | 0.00 | 0.00 | 0.00 | 78 | 998.1 |
| 20260508114006 | 65 | 27 | 10.0 | 24.0 | 0.00 | 0.00 | 0.00 | 78 | 998.3 |
| 20260508113008 | 65 | 40 | 8.0 | 20.0 | 0.00 | 0.00 | 0.00 | 78 | 998.3 |
| 20260508112005 | 66 | 28 | 11.0 | 24.0 | 0.00 | 0.00 | 0.00 | 77 | 998.3 |
| 20260508111006 | 66 | 44 | 14.0 | 28.0 | 0.00 | 0.00 | 0.00 | 77 | 998.7 |
| 20260508110007 | 66 | 40 | 10.0 | 19.0 | 0.00 | 0.00 | 0.00 | 77 | 999.0 |
| 20260508105006 | 65 | 52 | 8.0 | 17.0 | 0.00 | 0.00 | 0.00 | 77 | 999.1 |
| 20260508104005 | 66 | 35 | 10.0 | 23.0 | 0.00 | 0.00 | 0.00 | 76 | 998.9 |
| 20260508103007 | 65 | 33 | 6.0 | 20.0 | 0.00 | 0.00 | 0.00 | 77 | 999.8 |
| 20260508101007 | 66 | 35 | 5.0 | 19.0 | 0.00 | 0.00 | 0.00 | 76 | 999.8 |
| 20260508100006 | 66 | 33 | 8.0 | 16.0 | 0.00 | 0.00 | 0.00 | 75 | 999.9 |
| 20260508094005 | 66 | 39 | 5.0 | 17.0 | 0.00 | 0.00 | 0.00 | 74 | 999.9 |
| 20260508093006 | 66 | 29 | 4.0 | 23.0 | 0.00 | 0.00 | 0.00 | 73 | 1000.2 |
| 20260508091006 | 66 | 17 | 12.0 | 23.0 | 0.00 | 0.00 | 0.00 | 72 | 1000.1 |
| 20260508090007 | 66 | 30 | 10.0 | 19.0 | 0.00 | 0.00 | 0.00 | 73 | 1000.0 |
| 20260508085006 | 66 | 45 | 10.0 | 24.0 | 0.00 | 0.00 | 0.00 | 72 | 1000.4 |
| 20260508083008 | 67 | 31 | 8.0 | 30.0 | 0.00 | 0.00 | 0.00 | 71 | 1000.1 |
| 20260508082005 | 67 | 33 | 8.0 | 19.0 | 0.00 | 0.00 | 0.00 | 70 | 1000.4 |
| 20260508081005 | 65 | 39 | 4.0 | 14.0 | 0.00 | 0.00 | 0.00 | 73 | 1000.5 |
| 20260508080007 | 65 | 38 | 8.0 | 16.0 | 0.00 | 0.00 | 0.00 | 73 | 1000.6 |
| 20260508075006 | 65 | 31 | 8.0 | 16.0 | 0.00 | 0.00 | 0.00 | 73 | 1000.8 |
| 20260508074006 | 65 | 36 | 6.0 | 16.0 | 0.00 | 0.00 | 0.00 | 73 | 1000.8 |
| 20260508073007 | 65 | 37 | 8.0 | 17.0 | 0.00 | 0.00 | 0.00 | 73 | 1001.4 |
| 20260508072006 | 65 | 27 | 6.0 | 20.0 | 0.00 | 0.00 | 0.00 | 72 | 1001.8 |
| 20260508071006 | 65 | 26 | 12.0 | 20.0 | 0.00 | 0.00 | 0.00 | 72 | 1002.2 |
| 20260508070006 | 65 | 34 | 6.0 | 17.0 | 0.00 | 0.00 | 0.00 | 73 | 1002.2 |
| 20260508065006 | 65 | 35 | 6.0 | 19.0 | 0.00 | 0.00 | 0.00 | 73 | 1002.7 |
| 20260508064008 | 65 | 15 | 10.0 | 20.0 | 0.00 | 0.00 | 0.00 | 72 | 1002.4 |
| 20260508063006 | 65 | 25 | 8.0 | 17.0 | 0.00 | 0.00 | 0.00 | 73 | 1002.7 |
| 20260508062006 | 65 | 15 | 8.0 | 19.0 | 0.00 | 0.00 | 0.00 | 73 | 1002.6 |
| 20260508061007 | 65 | 25 | 6.0 | 17.0 | 0.00 | 0.00 | 0.00 | 72 | 1003.0 |
| 20260508060007 | 65 | 29 | 5.0 | 16.0 | 0.00 | 0.00 | 0.00 | 72 | 1003.5 |
| 20260508054006 | 66 | 35 | 8.0 | 20.0 | 0.00 | 0.00 | 0.00 | 70 | 1003.7 |
| 20260508053008 | 66 | 39 | 10.0 | 20.0 | 0.00 | 0.00 | 0.00 | 70 | 1003.3 |
| 20260508051007 | 66 | 46 | 4.0 | 10.0 | 0.00 | 0.00 | 0.00 | 70 | 1003.9 |
| 20260508050007 | 67 | 28 | 4.0 | 16.0 | 0.00 | 0.00 | 0.00 | 69 | 1004.7 |
| 20260508045006 | 67 | 23 | 8.0 | 17.0 | 0.00 | 0.00 | 0.00 | 69 | 1004.8 |